Weather History for Kaltag, AK

Change the Weather History Date:

Friday, September 21, 2012

  Actual Average (PAGA) Record (PAGA)
Temperature  
Mean Temperature 41 °F -  
Max Temperature 48 °F 46 °F 61 °F (1967)
Min Temperature 36 °F 32 °F 17 °F (1992)
Degree Days  
Heating Degree Days 24    
Moisture  
Dew Point 38 °F    
Average Humidity 86    
Maximum Humidity 93    
Minimum Humidity 71    
Precipitation  
Precipitation 0.00 in - - ()
Sea Level Pressure  
Sea Level Pressure 29.79 in    
Wind  
Wind Speed 4 mph (WSW)    
Max Wind Speed 8 mph    
Max Gust Speed -    
Visibility 10 miles    
Events Rain    
Averages and records for this station are not official NWS values.
T = Trace of Precipitation, MM = Missing Value Source: NWS Daily Summary

Daily Weather History Graph

Daily Weather History Graph

Search for Another Location

Airport:

Trip Planner

Search our weather history database for the weather conditions in past years. The results will help you decide how hot, cold, wet, or windy it might be!

Date:

Astronomy

Sep. 21, 2012 Rise Set
Actual Time 8:17 AM AKDT 8:36 PM AKDT
Civil Twilight 7:28 AM AKDT 9:24 PM AKDT
Nautical Twilight 6:29 AM AKDT 10:23 PM AKDT
Astronomical Twilight 5:20 AM AKDT 11:30 PM AKDT
Moon 5:20 PM AKDT (9/21) 10:20 PM AKDT (9/21)
Length of Visible Light 13h 56m
Length of Day
12h 19m
Waxing Crescent, 39% of the Moon is Illuminated
Sep 21
Waxing Crescent
Sep 22
First Quarter
Sep 29
Full
Oct 7
Last Quarter
Oct 15
New

Hourly Weather History & Observations

Time (AKDT) Temp. Windchill Dew Point Humidity Pressure Visibility Wind Dir Wind Speed Gust Speed Precip Events Conditions
12:53 AM 37.0 °F 34.5 °F 35.1 °F 93% 29.72 in 10.0 mi SW 3.5 mph - N/A Rain Light Rain
1:53 AM 37.0 °F 34.5 °F 35.1 °F 93% 29.72 in 10.0 mi SW 3.5 mph - N/A Rain Light Rain
2:53 AM 36.0 °F 32.1 °F 34.0 °F 93% 29.72 in 10.0 mi SW 4.6 mph - N/A Rain Light Rain
3:53 AM 37.0 °F 32.4 °F 35.1 °F 93% 29.72 in 10.0 mi SW 5.8 mph - N/A Rain Light Rain
4:53 AM 37.0 °F 33.3 °F 35.1 °F 93% 29.73 in 10.0 mi SW 4.6 mph - N/A Rain Light Rain
5:53 AM 37.9 °F 34.4 °F 35.1 °F 89% 29.75 in 10.0 mi SSW 4.6 mph - N/A Rain Light Rain
6:53 AM 37.9 °F 33.5 °F 35.1 °F 89% 29.76 in 10.0 mi SW 5.8 mph - N/A Rain Light Rain
7:53 AM 37.0 °F 34.5 °F 35.1 °F 93% 29.78 in 10.0 mi SW 3.5 mph - N/A Rain Light Rain
8:53 AM 37.9 °F 35.5 °F 35.1 °F 89% 29.79 in 10.0 mi SW 3.5 mph - N/A Rain Light Rain
9:53 AM 39.0 °F 35.7 °F 36.0 °F 89% 29.83 in 10.0 mi SW 4.6 mph - N/A Rain Light Rain
10:53 AM 39.0 °F 36.8 °F 36.0 °F 89% 29.84 in 10.0 mi SW 3.5 mph - N/A Rain Light Rain
11:53 AM 41.0 °F - 37.0 °F 86% 29.86 in 10.0 mi Calm Calm - N/A Rain Light Rain
12:53 PM 42.1 °F - 37.0 °F 82% 29.87 in 10.0 mi Calm Calm - N/A Rain Light Rain
1:53 PM 44.1 °F 42.5 °F 39.0 °F 82% 29.87 in 10.0 mi NNE 3.5 mph - N/A Rain Light Rain
2:53 PM 46.0 °F 44.8 °F 39.0 °F 76% 29.87 in 10.0 mi Variable 3.5 mph - N/A Rain Light Rain
3:53 PM 46.9 °F - 37.9 °F 71% 29.85 in 10.0 mi Calm Calm - N/A Rain Light Rain
4:53 PM 46.9 °F - 39.0 °F 74% 29.84 in 10.0 mi NE 4.6 mph - N/A Rain Light Rain
5:40 PM 46.4 °F 43.5 °F 39.2 °F 76% 29.83 in 10.0 mi NNE 5.8 mph - N/A Rain Light Rain
5:53 PM 46.0 °F 43.1 °F 39.9 °F 79% 29.85 in 10.0 mi NE 5.8 mph - N/A   Overcast
6:53 PM 45.0 °F 43.5 °F 41.0 °F 86% 29.82 in 10.0 mi NNE 3.5 mph - N/A Rain Light Rain
7:53 PM 45.0 °F - 41.0 °F 86% 29.81 in 10.0 mi Calm Calm - N/A   Overcast
8:53 PM 44.1 °F - 42.1 °F 93% 29.79 in 10.0 mi Calm Calm - N/A   Overcast
9:13 PM 42.8 °F - 39.2 °F 87% 29.76 in 10.0 mi Calm Calm - N/A   Scattered Clouds
9:53 PM 41.0 °F - 39.0 °F 93% 29.75 in 10.0 mi Calm Calm - N/A   Clear
10:53 PM 44.1 °F 40.1 °F 39.9 °F 85% 29.73 in 10.0 mi NE 6.9 mph - N/A   Mostly Cloudy
11:34 PM 44.6 °F 40.2 °F 39.2 °F 81% 29.70 in 10.0 mi NNE 8.1 mph - N/A   Overcast
11:53 PM 46.0 °F 41.9 °F 39.0 °F 76% 29.70 in 10.0 mi NNE 8.1 mph - N/A   Overcast